Tracking 19219 objects as of 20-Jul-2018
HD Live streaming from Space Station
objects crossing your sky now

STTW-3

Track STTW-3 now!
STTW-3 is classified as:


NORAD ID: 19710
Int'l Code: 1988-111A
Perigee: 35,785.9 km
Apogee: 35,810.8 km
Inclination: 15.1 °
Period: 1,436.3 minutes
Semi major axis: 42169 km
RCS: 6.3096 m2 (large)
Launch date: December 22, 1988
Source: People's Republic of China (PRC)
Launch site: Xichang Space Center, China (XSC)
aabbcc
Your satellite tracking list
Your tracking list is empty




NASA's NSSDC Master Catalog

Two Line Element Set (TLE):
1 19710U 88111A   18200.85036694 -.00000384  00000-0  00000+0 0  9994
2 19710  15.1279  10.0941 0002958  75.7893 268.6903  1.00255312101884
Source of the keplerian elements: AFSPC